Regional Weather Roundup
Issued by NWS Albany, NY

Home | Current Version | Previous Version | Text Only | Print | Product List | Glossary On
Versions: 1 2 3 4 5 6 7 8 9 10 11 12 13 14 15 16 17 18 19 20 21 22 23 24 25 26 27
000
ASUS41 KALY 261710
RWRALY

NEW YORK STATE HOURLY WEATHER ROUNDUP
NATIONAL WEATHER SERVICE ALBANY NY
100 PM EDT MON JUN 26 2017

NOTE: "FAIR" INDICATES FEW OR NO CLOUDS BELOW 12,000 FEET WITH NO
SIGNIFICANT WEATHER AND/OR NO OBSTRUCTIONS TO VISIBILITY.

NYZ032-033-038>043-046>054-057>066-NYZ062>081-082-084-261800-
EAST


CITY           SKY/WX    TMP DP  RH WIND       PRES   REMARKS
ALBANY         PTSUNNY   70  53  54 NW5       29.99F
GLENS FALLS    MOSUNNY   71  51  49 SW13G18   29.96F
POUGHKEEPSIE   NOT AVBL
NEWBURGH       MOSUNNY   73  54  49 NW12G18   30.02F
WHITE PLAINS   MOSUNNY   73  48  40 NW10      30.02F
ISLIP          MOSUNNY   73  54  49 S14       30.02S
NEW YORK CITY  NOT AVBL
CENTRAL PARK   MOSUNNY   78  48  34 VRB5      30.04F
$$

NYZ005>009-017-018-044>046-055-056-261800-
CENTRAL


CITY           SKY/WX    TMP DP  RH WIND       PRES   REMARKS
FULTON         PTSUNNY   66  57  72 CALM      29.98F
SYRACUSE       PTSUNNY   69  54  58 N14       29.97F THUNDER
ROME           MOSUNNY   71  54  54 SW10      29.97F
ELMIRA         PTSUNNY   72  45  37 W10G22    29.99F
BINGHAMTON     NOT AVBL
$$

NYZ026>034-041>043-087-261800-
NORTH


CITY           SKY/WX    TMP DP  RH WIND       PRES   REMARKS
WATERTOWN      PTSUNNY   65  54  67 W6        29.97F
FORT DRUM      NOT AVBL
OGDENSBURG     FAIR      70  49  47 CALM      29.97F
MASSENA        SUNNY     69  49  48 W7        29.97F
SARANAC LAKE   CLOUDY    62  45  53 CALM      29.97F
PLATTSBURGH    NOT AVBL
$$

NYZ001>004-010>016-019>021-085-261800-
WEST


CITY           SKY/WX    TMP DP  RH WIND       PRES   REMARKS
NIAGARA FALLS  MOSUNNY   72  51  47 SW20      29.95F
BUFFALO        MOSUNNY   69  52  54 SW16G29   29.98F
DUNKIRK        PTSUNNY   66  53  63 SW13G23   30.00F
JAMESTOWN      CLOUDY    61  46  59 W9        30.03S
WELLSVILLE     PTSUNNY   64  47  53 W9        30.03F
ROCHESTER      PTSUNNY   70  54  56 W12       29.97F
PENN YAN       PTSUNNY   63  54  72 S6        30.01F
$$

             KEY
       WCI = WIND CHILL INDEX
       VSB = VISIBILITY
       HX  = HEAT INDEX
$$




USA.gov is the U.S. government's official web portal to all federal, state and local government web resources and services.